This is the latest recevied weather packets stored in our database for station/object KD4WXI. If no packets are shown the sender has not sent any weather packets the latest 10 day(s).
| Time | Temp. | Humidity | Pressure | Rain* | Wind** | Luminosity | Snow |
|---|---|---|---|---|---|---|---|
| 1777947731 | 13.33° C | 62% | 1015.4 hPa | 0 mm | - | 0 W/m² | - |
| 1777947428 | 13.33° C | 67% | 1015.3 hPa | 0 mm | - | 0 W/m² | - |
| 1777947125 | 13.33° C | 65% | 1015.4 hPa | 0 mm | - | 0 W/m² | - |
| 1777946821 | 13.33° C | 67% | 1015.5 hPa | 0 mm | - | 0 W/m² | - |
| 1777946516 | 13.89° C | 65% | 1015.5 hPa | 0 mm | - | 0 W/m² | - |
| 1777946214 | 13.89° C | 65% | 1015.2 hPa | 0 mm | - | 0 W/m² | - |
| 1777945910 | 13.89° C | 63% | 1015.2 hPa | 0 mm | - | 0 W/m² | - |
| 1777945608 | 13.89° C | 61% | 1015.2 hPa | 0 mm | - | 0 W/m² | - |
| 1777945305 | 14.44° C | 63% | 1015.3 hPa | 0 mm | - | 0 W/m² | - |
| 1777945002 | 14.44° C | 63% | 1015.2 hPa | 0 mm | - | 0 W/m² | - |
| 1777944699 | 14.44° C | 63% | 1015.2 hPa | 0 mm | - | 0 W/m² | - |
| 1777944398 | 14.44° C | 66% | 1015.2 hPa | 0 mm | - | 0 W/m² | - |
| 1777944094 | 14.44° C | 64% | 1015 hPa | 0 mm | - | 0 W/m² | - |
| 1777943790 | 15° C | 61% | 1014.9 hPa | 0 mm | - | 0 W/m² | - |
| 1777943488 | 15° C | 61% | 1014.9 hPa | 0 mm | - | 0 W/m² | - |
| 1777943187 | 15.56° C | 58% | 1015 hPa | 0 mm | - | 0 W/m² | - |
| 1777942885 | 15.56° C | 56% | 1014.8 hPa | 0 mm | - | 0 W/m² | - |
| 1777942580 | 16.67° C | 56% | 1014.7 hPa | 0 mm | - | 0 W/m² | - |
| 1777942278 | 16.67° C | 53% | 1014.6 hPa | 0 mm | - | 0 W/m² | - |
| 1777941975 | 17.22° C | 53% | 1014.6 hPa | 0 mm | - | 0 W/m² | - |
| 1777941672 | 17.78° C | 53% | 1014.6 hPa | 0 mm | - | 0 W/m² | - |
| 1777941369 | 17.78° C | 52% | 1014.3 hPa | 0 mm | - | 0 W/m² | - |
| 1777941066 | 17.78° C | 54% | 1014.1 hPa | 0 mm | - | 0 W/m² | - |
| 1777940762 | 18.33° C | 50% | 1014.1 hPa | 0 mm | - | 0 W/m² | - |
| 1777940461 | 18.89° C | 46% | 1014.8 hPa | 0 mm | - | 1 W/m² | - |
* Rain latest hour (hover to see other rain measurements)
** Current wind speed in m/s (hover to see current wind gust speed)